This is the latest recevied weather packets stored in our database for station/object WD7OO. If no packets are shown the sender has not sent any weather packets the latest 10 day(s).
| Time | Temp. | Humidity | Pressure | Rain* | Wind** | Luminosity | Snow |
|---|---|---|---|---|---|---|---|
| 1777550663 | 2.78° C | 99% | 1017.1 hPa | 0 mm | - | 72 W/m² | - |
| 1777550359 | 2.22° C | 99% | 1016.7 hPa | 0 mm | - | 68 W/m² | - |
| 1777550055 | 2.22° C | 99% | 1017 hPa | 0 mm | - | 52 W/m² | - |
| 1777549752 | 1.67° C | 99% | 1016.7 hPa | 0 mm | - | 54 W/m² | - |
| 1777549447 | 1.11° C | 99% | 1016.7 hPa | 0 mm | - | 46 W/m² | - |
| 1777549144 | 1.11° C | 99% | 1016.7 hPa | 0 mm | - | 33 W/m² | - |
| 1777548840 | 1.11° C | 99% | 1016.7 hPa | 0 mm | - | 29 W/m² | - |
| 1777548538 | 0.56° C | 99% | 1016.8 hPa | 0 mm | - | 27 W/m² | - |
| 1777548234 | 0.56° C | 99% | 1016.9 hPa | 0 mm | - | 24 W/m² | - |
| 1777547931 | 0.56° C | 99% | 1016.9 hPa | 0 mm | - | 20 W/m² | - |
| 1777547627 | 0.56° C | 99% | 1016.6 hPa | 0 mm | - | 19 W/m² | - |
| 1777547324 | 0.56° C | 99% | 1016.5 hPa | 0 mm | - | 16 W/m² | - |
| 1777547021 | 0.56° C | 99% | 1016.5 hPa | 0 mm | - | 11 W/m² | - |
| 1777546718 | 0.56° C | 99% | 1016.7 hPa | 0 mm | - | 9 W/m² | - |
| 1777546415 | 0.56° C | 99% | 1016.6 hPa | 0 mm | - | 6 W/m² | - |
| 1777546112 | 0.56° C | 99% | 1016.8 hPa | 0 mm | - | 3 W/m² | - |
| 1777545808 | 0.56° C | 99% | 1016.7 hPa | 0 mm | - | 2 W/m² | - |
| 1777545505 | 0.56° C | 99% | 1016.8 hPa | 0 mm | - | 0 W/m² | - |
| 1777545202 | 0.56° C | 99% | 1016.6 hPa | 0 mm | - | 0 W/m² | - |
| 1777544900 | 0.56° C | 99% | 1016.9 hPa | 0 mm | - | 0 W/m² | - |
| 1777544596 | 0.56° C | 99% | 1016.6 hPa | 0 mm | - | 0 W/m² | - |
| 1777544293 | 0.56° C | 99% | 1017 hPa | 0 mm | - | 0 W/m² | - |
| 1777543989 | 1.11° C | 99% | 1016.7 hPa | 0 mm | - | 0 W/m² | - |
| 1777543686 | 1.11° C | 99% | 1016.7 hPa | 0 mm | - | 0 W/m² | - |
| 1777543382 | 1.11° C | 99% | 1016.8 hPa | 0 mm | - | 0 W/m² | - |
* Rain latest hour (hover to see other rain measurements)
** Current wind speed in m/s (hover to see current wind gust speed)